Powrót do katalogu

THOR ABLESTAR DEB

AktywnyLEO
NORAD 3164·DEBRIS·🇺🇸 United States

Wystrzelony Jun 29, 1961 z Cape Canaveral Space Force Station

Loading…

Następne Przeloty (najbliższe 24 godziny)

TLE

ŚwieżeSource: Space-Track

Epoka: Sep 13, 2026, 22:16 UTC

1  3164U 61015HZ  26256.92828149  .00000632  00000-0  44040-3 0  9997
2  3164  66.7450 227.5931 0048986 337.0187  22.8706 14.04547551100278

Śledź THOR ABLESTAR DEB w czasie rzeczywistym z AllMySat

Download on the App Store